Amateur Radio Satellites - All Passes

Search period start: 20 June 2013 07:06
Search period end: 21 June 2013 07:06
Location: 3 Angels Observatory, 30.5437°N, 88.5068°W

Satellite Date Start Highest point End Downlink Frequencies (MHz)
Time Altitude Azimuth
Hamsat 20 Jun 07:11:50 07:15:34 27° 97° (E) 07:19:15 145.90 MHz
SO-67 20 Jun 07:32:23 07:33:06 11° 94° (E) 07:33:49 435.3500 MHz FM
STRAND 1 20 Jun 07:45:39 07:49:10 19° 265° (W) 07:52:43 ?
Saudisat 1A 20 Jun 07:54:45 07:59:09 57° 246° (WSW) 08:03:27 436.775 MHz
AO-7 20 Jun 08:19:54 08:21:33 11° 307° (NW) 08:23:12 29.400 - 29.500 MHz
JAS-1B 20 Jun 08:44:56 08:50:55 65° 285° (WNW) 08:57:54 435.800 - 435.900 CW/SSB
Hamsat 20 Jun 08:48:20 08:51:24 19° 290° (WNW) 08:54:26 145.90 MHz
HO-68 20 Jun 08:50:06 08:52:55 13° 93° (E) 08:55:44 435.675 MHz FM
SO-67 20 Jun 09:03:25 09:06:35 30° 286° (WNW) 09:09:44 435.3500 MHz FM
PCSat 20 Jun 09:50:15 09:55:06 32° 60° (ENE) 09:59:55 145.825 MHz
RS-15 20 Jun 10:05:33 10:15:40 32° 105° (ESE) 10:25:25 29.354 - 29.394 USB, Beacon 29.352 USB
JAS-2 20 Jun 10:05:58 10:11:02 48° 100° (E) 10:16:00 435.800 - 435.900 CW/SSB, 435.910 FM
Sapphire 20 Jun 10:24:28 10:29:52 65° 64° (ENE) 10:35:14 437.095 MHz 1200 baud AX-25 AFSK
Oscar 11 20 Jun 10:30:34 10:34:54 61° 101° (E) 10:39:12 145.825 FM, Beacon 2401.500 USB
HO-68 20 Jun 10:33:58 10:41:11 84° 286° (WNW) 10:48:22 435.675 MHz FM
SO-50 20 Jun 10:49:50 10:54:20 76° 244° (WSW) 10:58:47 436.795 FM
PCSat 20 Jun 11:33:55 11:38:19 26° 253° (WSW) 11:42:41 145.825 MHz
JAS-2 20 Jun 11:52:56 11:55:39 14° 295° (WNW) 11:58:21 435.800 - 435.900 CW/SSB, 435.910 FM
OPAL 20 Jun 11:53:08 11:58:07 76° 286° (WNW) 12:03:07 ?
Sapphire 20 Jun 12:10:44 12:12:39 12° 257° (WSW) 12:14:35 437.095 MHz 1200 baud AX-25 AFSK
RS-15 20 Jun 12:15:30 12:27:23 61° 301° (WNW) 12:38:50 29.354 - 29.394 USB, Beacon 29.352 USB
UOSAT-12 20 Jun 12:24:23 12:27:50 21° 54° (NE) 12:31:17 437.025 FM, 437.400 FM
HO-68 20 Jun 12:25:11 12:27:48 12° 301° (WNW) 12:30:25 435.675 MHz FM
Oscar 19 20 Jun 12:55:39 12:58:42 16° 67° (ENE) 13:01:45 437.125 CW, 437.150 USB
ITAMSAT 1 20 Jun 13:22:03 13:26:11 24° 69° (ENE) 13:30:20 435.822 SSB
AO-27 20 Jun 13:23:21 13:27:35 26° 70° (ENE) 13:31:51 436.795 MHz FM
Oscar 16 20 Jun 13:38:40 13:43:43 55° 74° (ENE) 13:48:45 437.025 USB, Beacon 2401.1428
AO-Echo 20 Jun 13:49:51 13:52:04 13° 67° (ENE) 13:54:17 ?
ISS 20 Jun 13:52:30 13:54:49 18° 127° (SE) 13:57:07 145.800 FM
Uribyol 2 20 Jun 13:54:12 13:59:17 56° 74° (ENE) 14:04:24 436.500 FM
UOSAT-12 20 Jun 14:03:54 14:08:02 33° 248° (WSW) 14:12:09 437.025 FM, 437.400 FM
Oscar 19 20 Jun 14:32:39 14:37:37 47° 260° (W) 14:42:35 437.125 CW, 437.150 USB
RS-15 20 Jun 14:36:23 14:42:40 16° 326° (NW) 14:48:50 29.354 - 29.394 USB, Beacon 29.352 USB
ITAMSAT 1 20 Jun 15:00:56 15:05:29 31° 262° (W) 15:10:04 435.822 SSB
AO-27 20 Jun 15:02:29 15:06:56 29° 263° (W) 15:11:26 436.795 MHz FM
Gurwin Techsat 1B 20 Jun 15:05:11 15:09:47 31° 71° (ENE) 15:14:24 435.225 FM
Oscar 16 20 Jun 15:21:01 15:23:18 13° 266° (W) 15:25:35 437.025 USB, Beacon 2401.1428
KITSAT 1 20 Jun 15:24:39 15:29:13 16° 102° (ESE) 15:33:48 435.175 FM
AO-7 20 Jun 15:25:33 15:30:44 18° 58° (ENE) 15:35:56 29.400 - 29.500 MHz
AO-Echo 20 Jun 15:25:53 15:30:23 47° 260° (W) 15:34:58 ?
ISS 20 Jun 15:28:28 15:31:20 27° 320° (NW) 15:34:12 145.800 FM
Uribyol 2 20 Jun 15:36:45 15:39:01 13° 267° (W) 15:41:18 436.500 FM
Uosat F 20 Jun 15:45:54 15:50:54 88° 256° (WSW) 15:55:57 435.120 FM
TMSAT-1 20 Jun 16:02:58 16:08:15 80° 76° (ENE) 16:13:34 436.925 FM
Gurwin Techsat 1B 20 Jun 16:45:26 16:49:41 25° 264° (W) 16:53:58 435.225 FM
AO-7 20 Jun 17:14:12 17:22:31 81° 254° (WSW) 17:30:55 29.400 - 29.500 MHz
KITSAT 1 20 Jun 17:15:37 17:23:40 78° 296° (WNW) 17:31:48 435.175 FM
MaSat-1 20 Jun 17:49:43 17:51:36 12° 106° (ESE) 17:53:23 437.345 MHz
Hamsat 20 Jun 18:03:13 18:04:09 11° 67° (ENE) 18:05:05 145.90 MHz
STRAND 1 20 Jun 18:22:19 18:26:09 21° 96° (E) 18:29:57 ?
RS-15 20 Jun 19:14:00 19:22:08 23° 42° (NE) 19:30:06 29.354 - 29.394 USB, Beacon 29.352 USB
AO-7 20 Jun 19:14:14 19:16:10 11° 268° (W) 19:18:06 29.400 - 29.500 MHz
KITSAT 1 20 Jun 19:16:04 19:20:20 15° 315° (NW) 19:24:37 435.175 FM
JAS-1B 20 Jun 19:24:12 19:31:25 65° 75° (ENE) 19:37:31 435.800 - 435.900 CW/SSB
MaSat-1 20 Jun 19:27:22 19:33:23 68° 291° (WNW) 19:38:03 437.345 MHz
SO-67 20 Jun 19:33:27 19:36:43 35° 75° (ENE) 19:40:01 435.3500 MHz FM
Hamsat 20 Jun 19:35:30 19:39:42 50° 261° (W) 19:43:57 145.90 MHz
PANSAT 20 Jun 19:59:56 20:03:15 27° 161° (SSE) 20:06:34 not established
STRAND 1 20 Jun 20:00:43 20:05:21 35° 289° (WNW) 20:09:58 ?
JAS-2 20 Jun 20:13:50 20:17:34 15° 65° (ENE) 20:21:07 435.800 - 435.900 CW/SSB, 435.910 FM
Saudisat 1A 20 Jun 20:20:36 20:21:41 11° 107° (ESE) 20:22:47 436.775 MHz
HO-68 20 Jun 20:56:28 21:03:02 42° 68° (ENE) 21:09:38 435.675 MHz FM
JAS-1B 20 Jun 21:18:18 21:22:05 15° 263° (W) 21:25:37 435.800 - 435.900 CW/SSB
Oscar 11 20 Jun 21:21:02 21:24:31 24° 71° (ENE) 21:28:01 145.825 FM, Beacon 2401.500 USB
RS-15 20 Jun 21:24:57 21:35:58 89° 244° (WSW) 21:46:53 29.354 - 29.394 USB, Beacon 29.352 USB
AO-40 20 Jun 21:26:36 03:30:11 50° 167° (SSE) 06:38:23 Beacon 2401.320
PANSAT 20 Jun 21:39:32 21:43:21 57° 173° (S) 21:47:10 not established
JAS-2 20 Jun 21:54:22 22:01:57 83° 257° (WSW) 22:08:49 435.800 - 435.900 CW/SSB, 435.910 FM
Saudisat 1A 20 Jun 21:56:23 22:00:50 56° 300° (WNW) 22:05:21 436.775 MHz
ISS 20 Jun 22:01:32 22:04:03 20° 38° (NE) 22:06:35 145.800 FM
HO-68 20 Jun 22:44:42 22:50:43 29° 262° (W) 22:56:47 435.675 MHz FM
Oscar 11 20 Jun 22:57:17 23:00:37 22° 264° (W) 23:03:59 145.825 FM, Beacon 2401.500 USB
OPAL 20 Jun 23:02:40 23:07:43 80° 255° (WSW) 23:12:44 ?
Sapphire 20 Jun 23:19:19 23:22:58 19° 105° (ESE) 23:26:38 437.095 MHz 1200 baud AX-25 AFSK
PANSAT 20 Jun 23:19:45 23:23:35 59° 186° (S) 23:27:25 not established
SO-50 20 Jun 23:22:58 23:24:10 11° 107° (ESE) 23:25:21 436.795 FM
ISS 20 Jun 23:37:57 23:40:42 25° 231° (SW) 23:43:28 145.800 FM
RS-15 20 Jun 23:41:12 23:46:42 15° 260° (W) 23:52:14 29.354 - 29.394 USB, Beacon 29.352 USB
JAS-2 20 Jun 23:46:19 23:47:19 10° 267° (W) 23:48:18 435.800 - 435.900 CW/SSB, 435.910 FM
PCSat 21 Jun 00:25:51 00:31:15 87° 294° (WNW) 00:36:41 145.825 MHz
SO-50 21 Jun 00:59:32 01:04:15 60° 299° (WNW) 01:08:56 436.795 FM
PANSAT 21 Jun 01:00:18 01:03:42 29° 198° (SSW) 01:07:05 not established
Sapphire 21 Jun 01:00:53 01:05:59 43° 298° (WNW) 01:11:09 437.095 MHz 1200 baud AX-25 AFSK
KITSAT 1 21 Jun 01:16:30 01:22:19 21° 49° (NE) 01:28:06 435.175 FM
ITAMSAT 1 21 Jun 01:41:53 01:44:25 14° 94° (E) 01:46:55 435.822 SSB
AO-27 21 Jun 01:43:11 01:46:00 15° 94° (E) 01:48:49 436.795 MHz FM
Oscar 16 21 Jun 01:56:36 02:01:07 31° 98° (E) 02:05:35 437.025 USB, Beacon 2401.1428
Uribyol 2 21 Jun 02:13:11 02:17:49 32° 98° (E) 02:22:24 436.500 FM
UOSAT-12 21 Jun 02:30:55 02:34:14 21° 110° (ESE) 02:37:35 437.025 FM, 437.400 FM
Oscar 19 21 Jun 02:49:52 02:55:00 83° 284° (WNW) 03:00:06 437.125 CW, 437.150 USB
KITSAT 1 21 Jun 03:10:21 03:18:28 77° 247° (WSW) 03:26:33 435.175 FM
ITAMSAT 1 21 Jun 03:19:04 03:24:09 53° 286° (WNW) 03:29:11 435.822 SSB
AO-27 21 Jun 03:20:41 03:25:43 50° 287° (WNW) 03:30:43 436.795 MHz FM
Gurwin Techsat 1B 21 Jun 03:27:40 03:31:29 20° 95° (E) 03:35:18 435.225 FM
Oscar 16 21 Jun 03:36:16 03:40:16 23° 291° (WNW) 03:44:15 437.025 USB, Beacon 2401.1428
AO-Echo 21 Jun 03:38:07 03:43:21 87° 103° (ESE) 03:48:40 ?
Uribyol 2 21 Jun 03:53:02 03:57:04 23° 291° (WNW) 04:01:05 436.500 FM
Uosat F 21 Jun 03:59:36 04:04:27 46° 100° (E) 04:09:17 435.120 FM
UOSAT-12 21 Jun 04:10:14 04:14:10 30° 303° (WNW) 04:18:10 437.025 FM, 437.400 FM
TMSAT-1 21 Jun 04:24:48 04:29:58 52° 100° (E) 04:35:06 436.925 FM
Gurwin Techsat 1B 21 Jun 05:06:38 05:11:30 38° 288° (WNW) 05:16:22 435.225 FM
AO-7 21 Jun 05:22:25 05:30:30 51° 102° (ESE) 05:38:29 29.400 - 29.500 MHz
STRAND 1 21 Jun 05:33:38 05:36:58 18° 67° (ENE) 05:40:18 ?
Uosat F 21 Jun 05:39:52 05:42:49 16° 293° (WNW) 05:45:46 435.120 FM
MaSat-1 21 Jun 05:57:47 05:59:58 25° 251° (WSW) 06:02:18 437.345 MHz
TMSAT-1 21 Jun 06:06:25 06:09:25 15° 293° (WNW) 06:12:24 436.925 FM
Saudisat 1A 21 Jun 06:29:39 06:33:20 24° 55° (NE) 06:36:57 436.775 MHz

Developed and maintained by Chris Peat, Heavens-Above GmbH. Please read the updated FAQ before sending e-mail. Imprint. DLR
